Warrenton, VA

9:27 PM EDT on September 25, 2017 (GMT -0400)
Warrenton

Weather History for KHWY - May, 2013

Change the Weather History Date:

Sunday, May 26, 2013

  Actual Average (KHEF) Record (KHEF)
Temperature  
Mean Temperature 58 °F -  
Max Temperature 75 °F 72 °F 93 °F (2007)
Min Temperature 42 °F 51 °F 41 °F (2013)
Degree Days  
Heating Degree Days 6    
Growing Degree Days 8 (Base 50)    
Moisture  
Dew Point 45 °F    
Average Humidity 64    
Maximum Humidity 100    
Minimum Humidity 34    
Precipitation  
Precipitation 0.00 in - - ()
Sea Level Pressure  
Sea Level Pressure 30.19 in    
Wind  
Wind Speed 5 mph (NW)    
Max Wind Speed 14 mph    
Max Gust Speed 18 mph    
Visibility 10 miles    
Events      
Averages and records for this station are not official NWS values.
T = Trace of Precipitation, MM = Missing Value Source: NWS Daily Summary

Daily Weather History Graph

Daily Weather History Graph

Search for Another Location

Airport or City:

Trip Planner

Search our weather history database for the weather conditions in past years. The results will help you decide how hot, cold, wet, or windy it might be!

Date:

Astronomy

May. 26, 2013 Rise Set
Actual Time 5:51 AM EDT 8:25 PM EDT
Civil Twilight 5:20 AM EDT 8:56 PM EDT
Nautical Twilight 4:42 AM EDT 9:34 PM EDT
Astronomical Twilight 3:59 AM EDT 10:17 PM EDT
Moon 10:11 PM EDT 7:17 AM EDT
Length of Visible Light 15h 35m
Length of Day
14h 34m
Waning Gibbous, 97% of the Moon is Illuminated
May 26
Waning Gibbous
May 31
Last Quarter
Jun 8
New
Jun 16
First Quarter
Jun 23
Full

Hourly Weather History & Observations

Time (EDT) Temp. Windchill Dew Point Humidity Pressure Visibility Wind Dir Wind Speed Gust Speed Precip Events Conditions
12:15 AM 50.0 °F - 44.4 °F 81% 30.18 in 10.0 mi North 3.5 mph - N/A   Clear
12:35 AM 52.3 °F - 43.9 °F 73% 30.18 in 10.0 mi NW 9.2 mph - N/A   Clear
12:55 AM 52.2 °F - 43.3 °F 72% 30.19 in 10.0 mi NW 5.8 mph - N/A   Clear
1:15 AM 50.0 °F - 43.0 °F 77% 30.19 in 10.0 mi NW 6.9 mph - N/A   Clear
1:35 AM 48.4 °F - 42.8 °F 81% 30.19 in 10.0 mi ENE 5.8 mph - N/A   Clear
1:55 AM 49.5 °F - 42.6 °F 77% 30.19 in 10.0 mi Calm Calm - N/A   Clear
2:15 AM 46.0 °F - 43.5 °F 91% 30.20 in 10.0 mi Calm Calm - N/A   Clear
2:35 AM 45.3 °F - 42.8 °F 91% 30.19 in 10.0 mi Calm Calm - N/A   Clear
2:55 AM 43.2 °F 41.5 °F 41.9 °F 95% 30.18 in 10.0 mi ESE 3.5 mph - N/A   Clear
3:15 AM 43.0 °F - 42.4 °F 98% 30.18 in 10.0 mi Calm Calm - N/A   Clear
3:35 AM 44.1 °F 42.5 °F 42.1 °F 93% 30.19 in 10.0 mi SSE 3.5 mph - N/A   Clear
3:55 AM 44.4 °F - 42.1 °F 91% 30.19 in 10.0 mi Calm Calm - N/A   Clear
4:15 AM 42.6 °F - 41.7 °F 97% 30.18 in 10.0 mi Calm Calm - N/A   Clear
4:35 AM 44.1 °F - 41.9 °F 92% 30.19 in 10.0 mi Calm Calm - N/A   Clear
4:55 AM 45.0 °F 43.5 °F 41.9 °F 89% 30.19 in 10.0 mi SW 3.5 mph - N/A   Clear
5:15 AM 42.6 °F - 41.5 °F 96% 30.19 in 10.0 mi Calm Calm - N/A   Clear
5:35 AM 42.3 °F - 41.7 °F 98% 30.19 in 10.0 mi Calm Calm - N/A   Clear
5:55 AM 44.2 °F - 43.2 °F 96% 30.20 in 10.0 mi Calm Calm - N/A   Clear
6:15 AM 43.5 °F 41.9 °F 42.8 °F 97% 30.20 in 10.0 mi SSW 3.5 mph - N/A   Clear
6:35 AM 47.7 °F - 43.0 °F 84% 30.21 in 10.0 mi SSE 3.5 mph - N/A   Clear
6:55 AM 47.3 °F - 45.0 °F 92% 30.22 in 10.0 mi Calm Calm - N/A   Clear
7:15 AM 49.6 °F - 47.1 °F 91% 30.22 in 10.0 mi Calm Calm - N/A   Clear
7:35 AM 53.4 °F - 49.5 °F 86% 30.22 in 10.0 mi Calm Calm - N/A   Clear
7:55 AM 57.0 °F - 45.1 °F 64% 30.23 in 10.0 mi Calm Calm - N/A   Clear
8:15 AM 57.6 °F - 46.0 °F 65% 30.23 in 10.0 mi Calm Calm - N/A   Clear
8:35 AM 60.1 °F - 45.0 °F 57% 30.23 in 10.0 mi NW 6.9 mph - N/A   Clear
8:55 AM 60.8 °F - 44.6 °F 55% 30.24 in 10.0 mi NW 10.4 mph - N/A   Clear
9:15 AM 61.5 °F - 45.3 °F 55% 30.24 in 10.0 mi West 9.2 mph - N/A   Clear
9:35 AM 61.9 °F - 44.2 °F 52% 30.24 in 10.0 mi NNW 10.4 mph - N/A   Clear
9:55 AM 62.8 °F - 44.1 °F 50% 30.24 in 10.0 mi NW 13.8 mph - N/A   Clear
10:15 AM 63.7 °F - 45.3 °F 51% 30.24 in 10.0 mi NW 10.4 mph - N/A   Clear
10:35 AM 64.0 °F - 45.3 °F 51% 30.24 in 10.0 mi West 5.8 mph - N/A   Clear
10:55 AM 65.1 °F - 44.2 °F 47% 30.23 in 10.0 mi WNW 10.4 mph - N/A   Clear
11:15 AM 66.6 °F - 45.1 °F 46% 30.22 in 10.0 mi NW 12.7 mph 16.1 mph N/A   Clear
11:35 AM 66.4 °F - 43.9 °F 44% 30.22 in 10.0 mi WNW 9.2 mph - N/A   Clear
11:55 AM 67.6 °F - 45.9 °F 46% 30.22 in 10.0 mi NW 10.4 mph - N/A   Clear
12:15 PM 68.4 °F - 45.0 °F 43% 30.22 in 10.0 mi West 8.1 mph - N/A   Clear
12:35 PM 68.9 °F - 45.5 °F 43% 30.21 in 10.0 mi WSW 4.6 mph - N/A   Clear
12:55 PM 69.4 °F - 44.1 °F 40% 30.21 in 10.0 mi WSW 4.6 mph - N/A   Clear
1:15 PM 70.2 °F - 45.3 °F 41% 30.20 in 10.0 mi WNW 9.2 mph - N/A   Clear
1:35 PM 70.7 °F - 43.5 °F 37% 30.18 in 10.0 mi West 6.9 mph - N/A   Clear
1:55 PM 71.6 °F - 44.4 °F 38% 30.17 in 10.0 mi NW 9.2 mph - N/A   Clear
2:15 PM 71.6 °F - 44.1 °F 37% 30.17 in 10.0 mi NNW 9.2 mph 16.1 mph N/A   Clear
2:35 PM 72.5 °F - 45.1 °F 37% 30.16 in 10.0 mi NW 9.2 mph 17.3 mph N/A   Clear
2:55 PM 73.2 °F - 44.8 °F 36% 30.16 in 10.0 mi WNW 9.2 mph - N/A   Clear
3:15 PM 73.4 °F - 44.1 °F 35% 30.15 in 10.0 mi WNW 5.8 mph - N/A   Clear
3:35 PM 74.3 °F - 45.0 °F 35% 30.15 in 10.0 mi West 5.8 mph - N/A   Clear
3:55 PM 74.7 °F - 44.8 °F 34% 30.15 in 10.0 mi WNW 8.1 mph - N/A   Clear
4:15 PM 75.2 °F - 45.1 °F 34% 30.15 in 10.0 mi WNW 11.5 mph 18.4 mph N/A   Clear
4:35 PM 75.2 °F - 45.1 °F 34% 30.14 in 10.0 mi WNW 8.1 mph - N/A   Clear
4:55 PM 75.7 °F - 46.6 °F 35% 30.14 in 10.0 mi NW 6.9 mph - N/A   Clear
5:15 PM 74.8 °F - 45.3 °F 35% 30.14 in 10.0 mi NNW 6.9 mph - N/A   Clear
5:35 PM 75.0 °F - 44.4 °F 34% 30.14 in 10.0 mi NW 11.5 mph 16.1 mph N/A   Clear
5:55 PM 75.0 °F - 44.8 °F 34% 30.14 in 10.0 mi NNW 10.4 mph - N/A   Clear
6:15 PM 73.9 °F - 44.1 °F 34% 30.14 in 10.0 mi NW 8.1 mph - N/A   Clear
6:35 PM 73.6 °F - 44.8 °F 36% 30.14 in 10.0 mi NNW 11.5 mph 16.1 mph N/A   Clear
6:55 PM 72.5 °F - 43.2 °F 35% 30.14 in 10.0 mi NNW 9.2 mph - N/A   Clear
7:15 PM 71.6 °F - 43.2 °F 36% 30.15 in 10.0 mi NW 6.9 mph - N/A   Clear
7:35 PM 70.2 °F - 43.9 °F 39% 30.15 in 10.0 mi NNW 5.8 mph - N/A   Clear
7:55 PM 65.5 °F - 49.5 °F 56% 30.15 in 10.0 mi NNW 6.9 mph - N/A   Clear
8:15 PM 64.8 °F - 46.4 °F 51% 30.16 in 10.0 mi North 5.8 mph - N/A   Clear
8:35 PM 59.2 °F - 48.0 °F 66% 30.17 in 10.0 mi East 4.6 mph - N/A   Clear
8:55 PM 55.9 °F - 51.1 °F 84% 30.18 in 10.0 mi Calm Calm - N/A   Clear
9:15 PM 56.5 °F - 48.6 °F 75% 30.18 in 10.0 mi NE 3.5 mph - N/A   Clear
9:35 PM 55.2 °F - 48.7 °F 79% 30.19 in 10.0 mi Calm Calm - N/A   Clear
9:55 PM 52.0 °F - 49.6 °F 92% 30.20 in 10.0 mi Calm Calm - N/A   Clear
10:15 PM 51.1 °F - 49.5 °F 94% 30.20 in 10.0 mi Calm Calm - N/A   Clear
10:35 PM 51.1 °F - 48.9 °F 92% 30.22 in 10.0 mi Calm Calm - N/A   Clear
10:55 PM 49.8 °F - 48.7 °F 96% 30.22 in 10.0 mi Calm Calm - N/A   Clear
11:15 PM 51.1 °F - 48.2 °F 90% 30.22 in 10.0 mi Calm Calm - N/A   Clear
11:35 PM 48.7 °F - 48.2 °F 98% 30.23 in 10.0 mi Calm Calm - N/A   Clear
11:55 PM 48.2 °F - 48.2 °F 100% 30.23 in 10.0 mi Calm Calm - N/A   Clear